Location: Marcé
(47.5801°N, 0.3280°W)
Time: 20:58:47
(UTC+01:00)

Vanguard 1 - Pass Details

Date: 08 December 2021
Orbit: 652 x 3830 km, 34.2° (Epoch: 16 January)

Event Time Altitude Azimuth Distance (km) Brightness Sun altitude
Rises 22:28:27 0° 213° (SSW) 6,300 14.2 -52.0°
Reaches altitude 10° 22:32:35 10° 205° (SSW) 5,672 13.9 -52.6°
Enters shadow 22:35:27 17° 198° (SSW) 5,315 13.6 -53.0°
Maximum altitude 22:49:02 38° 146° (SE) 4,764 - -54.9°
Drops below altitude 10° 23:08:52 10° 89° (E) 6,833 - -57.6°
Sets 23:14:27 0° 82° (E) 7,671 - -58.3°
